          14 14  19 36.72  -36 05.9   4.584  5.129     8.9 / 226  17.0  105  .86

          15 14  19 36.19  -36 12.1   4.599  5.129     8.7 / 225  17.0  116  .79

          16 14  19 35.68  -36 18.3   4.614  5.129     8.5 / 225  17.0  128  .70

          17 14  19 35.18  -36 24.3   4.629  5.128     8.3 / 224  17.0  140  .61

          18 14  19 34.70  -36 30.2   4.645  5.128     8.0 / 224  17.0  151  .52

          19 14  19 34.24  -36 36.0   4.660  5.128     7.8 / 223  17.0  162  .42

          20 14  19 33.80  -36 41.7   4.676  5.128     7.6 / 222  17.0  169  .33

          21 14  19 33.37  -36 47.3   4.692  5.128     7.4 / 222  17.0  165  .24

          22 14  19 32.97  -36 52.8   4.708  5.127     7.2 / 221  17.0  154  .15

          23 14  19 32.58  -36 58.2   4.724  5.127     6.9 / 220  17.1  142  .09

          24 14  19 32.21  -37 03.6   4.740  5.127     6.7 / 219  17.1  128  .03

          25 14  19 31.85  -37 08.8   4.756  5.127     6.5 / 218  17.1  114  .01

          26 14  19 31.52  -37 13.9   4.773  5.127     6.3 / 217  17.1  100  .00

          27 14  19 31.20  -37 19.0   4.789  5.126     6.1 / 216  17.1   86  .03

          28 14  19 30.90  -37 24.0   4.806  5.126     5.9 / 214  17.1   71  .08

          29 14  19 30.62  -37 28.9   4.822  5.126     5.7 / 213  17.1   57  .16

          30 14  19 30.36  -37 33.7   4.839  5.126     5.6 / 211  17.1   42  .26

     Oct.  1 14  19 30.12  -37 38.5   4.856  5.126     5.4 / 210  17.1   29  .36



NAKANO

         **** Don't distribute anyone except personal use only ****

                (C) Copyright 2003 OAA/ComputingSection

write mail from CFAD0::NAKANO on 2003-08-14 01:52:00(JST).

 

    C/2003 J1 (NEAT)                                                      

T 2003 Oct. 14.07990 TT                                 Nakano

q   5.1236231            (2000.0)            P               Q

                   Peri.  196.47202     +0.47369344     -0.26904292

                   Node   122.04185     -0.65435261     +0.52977688

e   1.0            Incl.   98.39028     -0.58943803     -0.80433349

From 36 observations 2003 May 13-June 5.



NAKANO

         **** Don't distribute anyone except personal use only ****

                (C) Copyright 2003 OAA/ComputingSection

write mail from CFAD0::NAKANO on 2003-06-18 05:56:37(JST).

 



◎C/2003 J1の軌道と予報位置です



 久万の中村彰正氏によって6月5日に観測されました.氏の CCD全光度は

17.6等でした.



    C/2003 J1 (NEAT)                                                      

T 2003 Oct. 14.07990 TT                                 Nakano

q   5.1236231            (2000.0)            P               Q

                   Peri.  196.47202     +0.47369344     -0.26904292

                   Node   122.04185     -0.65435261     +0.52977688

e   1.0            Incl.   98.39028     -0.58943803     -0.80433349

From 36 observations 2003 May 13-June 5.

 

Date/        TT  R.A.(2000) Decl.     Delta   r     Daily motion  Mag.  Moon Age

              h    h  m       。  ,                      ,  / PA 。  m1      。

2003 June  5 18  20 56.09  -18 28.8   4.591  5.218    11.3 / 209  17.0  172  .28

           6 18  20 55.71  -18 38.7   4.575  5.217    11.5 / 209  17.0  159  .38

           7 18  20 55.31  -18 48.8   4.559  5.215    11.7 / 210  17.0  146  .49

           8 18  20 54.90  -18 59.0   4.544  5.214    11.9 / 211  17.0  132  .60

           9 18  20 54.47  -19 09.2   4.529  5.213    12.1 / 211  17.0  117  .71

          10 18  20 54.03  -19 19.6   4.514  5.211    12.3 / 212  16.9  103  .81

          11 18  20 53.57  -19 30.1   4.499  5.210    12.5 / 212  16.9   88  .89

          12 18  20 53.10  -19 40.7   4.485  5.208    12.7 / 213  16.9   73  .96

          13 18  20 52.61  -19 51.4   4.471  5.207    12.9 / 213  16.9   58  .99

          14 18  20 52.10  -20 02.2   4.457  5.206    13.1 / 214  16.9   43 1.00

          15 18  20 51.58  -20 13.1   4.443  5.204    13.3 / 214  16.9   28  .98

          16 18  20 51.05  -20 24.1   4.429  5.203    13.5 / 215  16.9   14  .93

          17 18  20 50.50  -20 35.2   4.416  5.202    13.7 / 215  16.9    2  .86

          18 18  20 49.93  -20 46.4   4.403  5.200    13.9 / 216  16.9   14  .78

          19 18  20 49.35  -20 57.6   4.391  5.199    14.1 / 216  16.9   27  .68

          20 18  20 48.75  -21 09.0   4.378  5.198    14.3 / 217  16.9   40  .59

          21 18  20 48.14  -21 20.5   4.366  5.197    14.5 / 217  16.9   53  .49

          22 18  20 47.52  -21 32.0   4.354  5.195    14.6 / 218  16.9   65  .39

          23 18  20 46.88  -21 43.6   4.343  5.194    14.8 / 218  16.8   77  .30

          24 18  20 46.22  -21 55.3   4.332  5.193    15.0 / 218  16.8   89  .22

          25 18  20 45.55  -22 07.0   4.321  5.192    15.2 / 219  16.8  101  .14

          26 18  20 44.86  -22 18.8   4.310  5.190    15.3 / 219  16.8  113  .08

          27 18  20 44.17  -22 30.7   4.300  5.189    15.5 / 220  16.8  125  .04

          28 18  20 43.45  -22 42.7   4.290  5.188    15.7 / 220  16.8  138  .01

          29 18  20 42.73  -22 54.7   4.280  5.187    15.8 / 220  16.8  150  .00

          30 18  20 41.99  -23 06.8   4.271  5.186    16.0 / 221  16.8  163  .01

     July  1 18  20 41.23  -23 18.9   4.262  5.185    16.1 / 221  16.8  176  .04

           2 18  20 40.47  -23 31.1   4.253  5.183    16.2 / 221  16.8  171  .09

           3 18  20 39.69  -23 43.3   4.245  5.182    16.4 / 222  16.8  158  .16

           4 18  20 38.89  -23 55.5   4.237  5.181    16.5 / 222  16.8  144  .25

           5 18  20 38.09  -24 07.8   4.229  5.180    16.6 / 222  16.8  130  .35

NAKANO

         **** Don't distribute anyone except personal use only ****

                (C) Copyright 2003 OAA/ComputingSection

write mail from CFAD0::NAKANO on 2003-06-07 04:34:50(JST).

 



戻ります。